Home   Weather   Georgetown   Past weeks
Flag for Guyana

Past Weather in Georgetown, Guyana — Yesterday and Last 2 Weeks

Now
79 °F

Scattered clouds.


Feels Like: 82 °F
Forecast: 87 / 75 °F
Wind: 5 mph from Southwest

Location: Georgetown/Cheddi Jagan International Airport

Current Time: Jul 21, 2019 at 9:01:25 am

Latest Report: Jul 21, 2019 at 8:00 am


Visibility: N/A

Pressure: 29.95 "Hg

Humidity: 89%

Dew Point: 75 °F

Location of GeorgetownLocation

Past Weather in Georgetown — Graph

°F

Georgetown Temperature Yesterday

Maximum temperature yesterday: 82 °F (at 4:00 pm)
Minimum temperature yesterday: 73 °F (at 5:00 am)
Average temperature yesterday: 76 °F

High & Low Weather Summary for the Past Weeks

 TemperatureHumidityPressure
High91 °F (Jul 7, 2:00 pm)100% (Jul 6, 8:00 am)30.04 "Hg (Jul 6, 8:00 am)
Low72 °F (Jul 7, 5:00 am)56% (Jul 7, 2:00 pm)29.80 "Hg (Jul 11, 3:00 pm)
Average79 °F89%29.93 "Hg
* Reported Jul 6 8:00 am — Jul 21 8:00 am, Georgetown. Weather by CustomWeather, © 2019

Note: Actual official high and low records may vary slightly from our data, if they occured in-between our weather recording intervals... More about our weather records

Advertising

Georgetown Weather History for the Previous 24 Hours

Scroll right to see more
 ConditionsComfort  
Time TempWeatherWind HumidityBarometerVisibility
8:00 am
Sun, Jul 21
79 °FScattered clouds.5 mph89%29.95 "HgN/A
7:00 am75 °FFog.5 mph100%29.92 "Hg3 mi
6:22 am75 °FFog.5 mph100%29.92 "Hg1 mi
6:00 am75 °FFog.2 mph100%29.89 "Hg1 mi
1:00 am75 °FThunderstorms. Passing clouds.5 mph100%29.92 "Hg6 mi
12:00 am75 °FPassing clouds.5 mph100%29.95 "HgN/A
11:00 pm
Sat, Jul 20
75 °FPassing clouds.2 mph100%29.95 "HgN/A
10:00 pm75 °FPassing clouds.5 mph100%29.95 "HgN/A
9:00 pm75 °FPassing clouds.2 mph100%29.92 "HgN/A
8:00 pm77 °FPassing clouds.2 mph94%29.92 "HgN/A
7:00 pm77 °FPassing clouds.2 mph94%29.89 "HgN/A
6:00 pm79 °FScattered clouds.7 mph89%29.89 "HgN/A
5:00 pm82 °FScattered clouds.9 mph79%29.86 "HgN/A
4:00 pm82 °FBroken clouds.5 mph84%29.86 "HgN/A
3:00 pm81 °FBroken clouds.7 mph89%29.89 "HgN/A
2:00 pm81 °FBroken clouds.5 mph89%29.92 "HgN/A
1:00 pm81 °FSprinkles. Broken clouds.5 mph84%29.95 "HgN/A
12:00 pm79 °FMore clouds than sun.5 mph89%29.95 "HgN/A
11:00 am75 °FRain. Mostly cloudy.5 mph100%29.98 "HgN/A
10:00 am73 °FLight rain. Mostly cloudy.5 mph100%29.98 "Hg6 mi
9:00 am73 °FLight rain. Mostly cloudy.2 mph100%29.98 "Hg5 mi
Weather by CustomWeather, © 2019

See weather overview